Location: Bathurst
(33.4193°S, 149.5775°E)
Time: 10:12:09
(UTC+10:00)

Vanguard 1 Rocket - Pass Details

Date: 23 June 2021
Orbit: 650 x 4226 km, 34.3° (Epoch: 02 August)

Event Time Altitude Azimuth Distance (km) Brightness Sun altitude
Rises 15:13:09 0° 258° (WSW) 4,839 11.6 17.5°
Reaches altitude 10° 15:18:03 10° 275° (W) 3,223 11.2 16.8°
Maximum altitude 15:22:43 18° 314° (NW) 2,161 13.5 16.1°
Drops below altitude 10° 15:26:16 10° 357° (N) 2,333 10.3 15.5°
Sets 15:29:04 0° 18° (NNE) 3,059 10.5 15.1°
